TALR91 WPMN-WPDL

Flight info

Callsign TALR91
Flight time 0h 20m
Altitude 6500
Route DCT
Aircraft H60/M-SDFGRY/LB1

Departure

Time 2026-05-04 04:58
Airport Maliana Airport (WPMN)

Arrival

Time 2026-05-04 05:19
Airport Presidente Nicolau Lobato International Airport (WPDL)
Time Latitude Longitude Altitude Speed Heading
2026-05-04 04:23 -8.97363 125.21873 727 ft 0 kts 112°
2026-05-04 04:58 -8.97364 125.21876 740 ft 1 kts 108°
2026-05-04 04:58 -8.97401 125.21863 748 ft 6 kts 108°
2026-05-04 04:58 -8.97412 125.21872 788 ft 2 kts 111°
2026-05-04 04:58 -8.97496 125.22026 918 ft 58 kts 117°
2026-05-04 04:59 -8.97856 125.22516 1299 ft 116 kts 129°
2026-05-04 04:59 -8.98667 125.22897 1408 ft 147 kts 179°
2026-05-04 04:59 -8.99509 125.22333 1678 ft 156 kts 234°
2026-05-04 04:59 -8.99615 125.21201 1690 ft 173 kts 282°
2026-05-04 05:00 -8.98991 125.20165 1849 ft 172 kts 308°
2026-05-04 05:00 -8.98132 125.19315 1993 ft 177 kts 325°
2026-05-04 05:00 -8.95721 125.19298 2016 ft 179 kts 13°
2026-05-04 05:01 -8.94505 125.19547 2236 ft 176 kts 13°
2026-05-04 05:01 -8.93309 125.19797 2187 ft 177 kts 13°
2026-05-04 05:01 -8.92104 125.20046 2191 ft 177 kts 13°
2026-05-04 05:01 -8.90899 125.20298 2199 ft 177 kts 13°
2026-05-04 05:02 -8.89693 125.20547 2203 ft 176 kts 13°
2026-05-04 05:02 -8.88492 125.20794 2203 ft 177 kts 13°
2026-05-04 05:02 -8.87286 125.21049 2206 ft 177 kts 13°
2026-05-04 05:02 -8.86080 125.21298 2204 ft 177 kts 13°
2026-05-04 05:03 -8.85320 125.21459 2211 ft 177 kts 13°
2026-05-04 05:04 -8.83040 125.21937 2202 ft 176 kts 13°
2026-05-04 05:04 -8.81834 125.22190 2204 ft 177 kts 13°
2026-05-04 05:04 -8.80627 125.22412 2199 ft 176 kts
2026-05-04 05:06 -8.73912 125.17626 2206 ft 180 kts 309°
2026-05-04 05:06 -8.73199 125.16600 2205 ft 178 kts 302°
2026-05-04 05:06 -8.72588 125.15497 2208 ft 180 kts 300°
2026-05-04 05:07 -8.71979 125.14397 2205 ft 180 kts 300°
2026-05-04 05:07 -8.71373 125.13294 2206 ft 180 kts 300°
2026-05-04 05:07 -8.70763 125.12194 2208 ft 179 kts 301°
2026-05-04 05:09 -8.63244 125.14437 2202 ft 174 kts 66°
2026-05-04 05:09 -8.62714 125.15550 2203 ft 174 kts 66°
2026-05-04 05:10 -8.62195 125.16632 2204 ft 173 kts 66°
2026-05-04 05:10 -8.61800 125.17768 2201 ft 172 kts 78°
2026-05-04 05:10 -8.61549 125.18956 2209 ft 174 kts 79°
2026-05-04 05:10 -8.61297 125.20147 2209 ft 172 kts 79°
2026-05-04 05:11 -8.61043 125.21334 2205 ft 173 kts 79°
2026-05-04 05:11 -8.60785 125.22518 2209 ft 172 kts 79°
2026-05-04 05:11 -8.60528 125.23693 2210 ft 171 kts 79°
2026-05-04 05:11 -8.60270 125.24878 2201 ft 173 kts 79°
2026-05-04 05:12 -8.60012 125.26061 2202 ft 172 kts 79°
2026-05-04 05:12 -8.59756 125.27243 2203 ft 173 kts 79°
2026-05-04 05:12 -8.59498 125.28428 2203 ft 173 kts 79°
2026-05-04 05:12 -8.59241 125.29612 2205 ft 172 kts 79°
2026-05-04 05:13 -8.58983 125.30795 2205 ft 172 kts 79°
2026-05-04 05:13 -8.58724 125.31981 2209 ft 173 kts 79°
2026-05-04 05:13 -8.58468 125.33152 2206 ft 173 kts 79°
2026-05-04 05:13 -8.58210 125.34336 2206 ft 172 kts 79°
2026-05-04 05:14 -8.57954 125.35521 2204 ft 172 kts 79°
2026-05-04 05:14 -8.57693 125.36699 2213 ft 168 kts 79°
2026-05-04 05:14 -8.57433 125.37876 2208 ft 172 kts 79°
2026-05-04 05:14 -8.57177 125.39052 2205 ft 172 kts 79°
2026-05-04 05:15 -8.56913 125.40240 2209 ft 172 kts 79°
2026-05-04 05:15 -8.56656 125.41423 2206 ft 173 kts 79°
2026-05-04 05:15 -8.56398 125.42608 2203 ft 171 kts 79°
2026-05-04 05:15 -8.56140 125.43776 2204 ft 172 kts 79°
2026-05-04 05:16 -8.55880 125.44957 2203 ft 172 kts 79°
2026-05-04 05:16 -8.55618 125.46141 2204 ft 172 kts 79°
2026-05-04 05:16 -8.55358 125.47321 2204 ft 172 kts 79°
2026-05-04 05:16 -8.55097 125.48504 2196 ft 173 kts 79°
2026-05-04 05:17 -8.54835 125.49687 2194 ft 172 kts 79°
2026-05-04 05:17 -8.54625 125.50869 2142 ft 171 kts 90°
2026-05-04 05:17 -8.55116 125.51995 1640 ft 176 kts 118°
2026-05-04 05:17 -8.54704 125.52732 1177 ft 140 kts 346°
2026-05-04 05:18 -8.54160 125.51891 907 ft 153 kts 292°
2026-05-04 05:18 -8.53855 125.50889 907 ft 145 kts 265°
2026-05-04 05:18 -8.54505 125.50335 689 ft 128 kts 176°
2026-05-04 05:18 -8.54913 125.50970 466 ft 115 kts 88°
2026-05-04 05:19 -8.54850 125.51557 200 ft 53 kts 83°
2026-05-04 05:19 -8.54804 125.51769 83 ft 5 kts 77°
2026-05-04 05:19 -8.54802 125.51785 34 ft 5 kts 75°
2026-05-04 05:19 -8.54821 125.51820 35 ft 8 kts 157°
2026-05-04 05:20 -8.54883 125.51838 38 ft 10 kts 172°
2026-05-04 05:20 -8.54916 125.51793 37 ft 10 kts 245°
2026-05-04 05:20 -8.54906 125.51751 35 ft 1 kts 201°
2026-05-04 05:20 -8.54902 125.51738 34 ft 1 kts 176°
2026-05-04 05:21 -8.54916 125.51728 34 ft 2 kts 176°
2026-05-04 05:21 -8.54908 125.51725 23 ft 0 kts 169°
2026-05-04 06:33 -8.54914 125.51810 21 ft 14 kts 72°
2026-05-04 06:34 -8.54855 125.51833 21 ft 11 kts 348°
2026-05-04 06:34 -8.54785 125.51815 28 ft 1 kts 65°
2026-05-04 06:34 -8.54756 125.51970 58 ft 63 kts 75°
2026-05-04 06:34 -8.54642 125.52666 272 ft 125 kts 80°
2026-05-04 06:35 -8.54452 125.53682 360 ft 160 kts 79°
2026-05-04 06:36 -8.53736 125.57243 918 ft 166 kts 81°
2026-05-04 06:37 -8.53506 125.58347 995 ft 165 kts 81°
2026-05-04 06:37 -8.53276 125.59456 1000 ft 163 kts 81°
2026-05-04 06:37 -8.53982 125.56048 946 ft 159 kts 81°
2026-05-04 06:37 -8.53768 125.57244 970 ft 172 kts 86°
2026-05-04 06:38 -8.54473 125.58068 835 ft 167 kts 167°
2026-05-04 06:38 -8.55440 125.57547 893 ft 174 kts 234°
2026-05-04 06:40 -8.54860 125.51733 84 ft 11 kts 181°
2026-05-04 06:40 -8.54898 125.51724 28 ft 11 kts 181°
2026-05-04 06:40 -8.54918 125.51721 19 ft 0 kts 170°